This is the latest recevied weather packets stored in our database for station/object K7NDG. If no packets are shown the sender has not sent any weather packets the latest 10 day(s).
| Time | Temp. | Humidity | Pressure | Rain* | Wind** | Luminosity | Snow |
|---|---|---|---|---|---|---|---|
| 1777773377 | 21.67° C | 60% | 1012.5 hPa | 0 mm | - | 81 W/m² | - |
| 1777773074 | 21.67° C | 59% | 1012.4 hPa | 0 mm | - | 61 W/m² | - |
| 1777772770 | 22.22° C | 58% | 1012.5 hPa | 0 mm | - | 67 W/m² | - |
| 1777772467 | 22.78° C | 59% | 1012.4 hPa | 0 mm | - | 50 W/m² | - |
| 1777772165 | 22.78° C | 58% | 1012.5 hPa | 0 mm | - | 59 W/m² | - |
| 1777771863 | 22.78° C | 58% | 1012.4 hPa | 0 mm | - | 51 W/m² | - |
| 1777771560 | 23.33° C | 58% | 1012.7 hPa | 0 mm | - | 62 W/m² | - |
| 1777771256 | 23.33° C | 58% | 1012.4 hPa | 0 mm | - | 72 W/m² | - |
| 1777770952 | 23.89° C | 56% | 1012.4 hPa | 0 mm | - | 54 W/m² | - |
| 1777770650 | 23.89° C | 57% | 1012.7 hPa | 0 mm | - | 109 W/m² | - |
| 1777770346 | 23.89° C | 57% | 1012.6 hPa | 0 mm | - | 61 W/m² | - |
| 1777770044 | 24.44° C | 56% | 1012.6 hPa | 0 mm | - | 67 W/m² | - |
| 1777769740 | 24.44° C | 55% | 1012.6 hPa | 0 mm | - | 59 W/m² | - |
| 1777769438 | 25° C | 55% | 1012.6 hPa | 0 mm | - | 60 W/m² | - |
| 1777769134 | 25° C | 56% | 1012.7 hPa | 0 mm | - | 67 W/m² | - |
| 1777768832 | 25° C | 55% | 1012.6 hPa | 0 mm | - | 62 W/m² | - |
| 1777768528 | 25.56° C | 55% | 1012.6 hPa | 0 mm | - | 83 W/m² | - |
| 1777768226 | 25.56° C | 54% | 1012.7 hPa | 0 mm | - | 146 W/m² | - |
| 1777767923 | 25.56° C | 54% | 1012.6 hPa | 0 mm | - | 235 W/m² | - |
| 1777767619 | 26.11° C | 53% | 1012.6 hPa | 0 mm | - | 314 W/m² | - |
| 1777767316 | 26.11° C | 54% | 1012.8 hPa | 0 mm | - | 357 W/m² | - |
| 1777767013 | 26.11° C | 55% | 1012.8 hPa | 0 mm | - | 378 W/m² | - |
| 1777766711 | 25.56° C | 54% | 1012.7 hPa | 0 mm | - | 398 W/m² | - |
| 1777766407 | 25.56° C | 54% | 1012.7 hPa | 0 mm | - | 382 W/m² | - |
| 1777766104 | 25.56° C | 56% | 1012.8 hPa | 0 mm | - | 303 W/m² | - |
* Rain latest hour (hover to see other rain measurements)
** Current wind speed in m/s (hover to see current wind gust speed)